| time (UTC) | temp C | wind direction | speed KPH | gust KPH | rain 1hr cm | rain 24hr cm | rain mn cm | humidity % | barometer mb |
| 20260508213932 | 23 | 39 | 3.2 | 8.0 | 0.00 | 0.00 | 0.00 | 32 | 1013.9 |
| 20260508213430 | 23 | 49 | 3.2 | 6.4 | 0.00 | 0.00 | 0.00 | 32 | 1013.7 |
| 20260508212925 | 23 | 297 | 3.2 | 6.4 | 0.00 | 0.00 | 0.00 | 32 | 1013.8 |
| 20260508212422 | 23 | 52 | 0.0 | 6.4 | 0.00 | 0.00 | 0.00 | 32 | 1013.7 |
| 20260508211918 | 23 | 333 | 0.0 | 3.2 | 0.00 | 0.00 | 0.00 | 32 | 1013.9 |
| 20260508211413 | 23 | 234 | 0.0 | 9.7 | 0.00 | 0.00 | 0.00 | 33 | 1013.9 |
| 20260508210911 | 23 | 319 | 0.0 | 3.2 | 0.00 | 0.00 | 0.00 | 32 | 1013.8 |
| 20260508210407 | 23 | 70 | 4.8 | 4.8 | 0.00 | 0.00 | 0.00 | 34 | 1013.9 |
| 20260508205903 | 23 | 260 | 9.7 | 9.7 | 0.00 | 0.00 | 0.00 | 32 | 1013.8 |
| 20260508205401 | 23 | 169 | 1.6 | 6.4 | 0.00 | 0.00 | 0.00 | 30 | 1013.5 |
| 20260508204857 | 23 | 64 | 8.0 | 8.0 | 0.00 | 0.00 | 0.00 | 29 | 1013.5 |
| 20260508204354 | 23 | 77 | 1.6 | 4.8 | 0.00 | 0.00 | 0.00 | 30 | 1013.8 |
| 20260508203849 | 23 | 72 | 6.4 | 8.0 | 0.00 | 0.00 | 0.00 | 30 | 1013.9 |
| 20260508203346 | 23 | 104 | 0.0 | 6.4 | 0.00 | 0.00 | 0.00 | 31 | 1013.9 |
| 20260508202842 | 23 | 66 | 6.4 | 9.7 | 0.00 | 0.00 | 0.00 | 30 | 1014.0 |
| 20260508202340 | 23 | 350 | 0.0 | 4.8 | 0.00 | 0.00 | 0.00 | 33 | 1013.9 |
| 20260508201837 | 22 | 55 | 0.0 | 3.2 | 0.00 | 0.00 | 0.00 | 33 | 1013.8 |
| 20260508201334 | 22 | 49 | 3.2 | 8.0 | 0.00 | 0.00 | 0.00 | 32 | 1013.9 |
| 20260508200830 | 23 | 52 | 3.2 | 9.7 | 0.00 | 0.00 | 0.00 | 32 | 1014.0 |
| 20260508200327 | 22 | 12 | 3.2 | 8.0 | 0.00 | 0.00 | 0.00 | 35 | 1014.1 |
| 20260508195822 | 22 | 65 | 0.0 | 3.2 | 0.00 | 0.00 | 0.00 | 35 | 1014.2 |
| 20260508195319 | 22 | 63 | 3.2 | 6.4 | 0.00 | 0.00 | 0.00 | 35 | 1014.4 |
| 20260508194816 | 22 | 80 | 6.4 | 6.4 | 0.00 | 0.00 | 0.00 | 35 | 1014.4 |
| 20260508194313 | 22 | 62 | 3.2 | 11.3 | 0.00 | 0.00 | 0.00 | 34 | 1014.7 |
| 20260508193810 | 22 | 37 | 3.2 | 6.4 | 0.00 | 0.00 | 0.00 | 38 | 1014.7 |
| 20260508193307 | 22 | 60 | 4.8 | 6.4 | 0.00 | 0.00 | 0.00 | 34 | 1014.8 |
| 20260508192803 | 22 | 83 | 3.2 | 3.2 | 0.00 | 0.00 | 0.00 | 36 | 1015.0 |
| 20260508192300 | 22 | 211 | 1.6 | 9.7 | 0.00 | 0.00 | 0.00 | 34 | 1015.4 |
| 20260508191757 | 22 | 94 | 4.8 | 14.5 | 0.00 | 0.00 | 0.00 | 32 | 1015.6 |
| 20260508191254 | 22 | 310 | 3.2 | 4.8 | 0.00 | 0.00 | 0.00 | 34 | 1015.5 |
| 20260508190751 | 22 | 266 | 0.0 | 4.8 | 0.00 | 0.00 | 0.00 | 36 | 1015.8 |
| 20260508190247 | 22 | 283 | 3.2 | 4.8 | 0.00 | 0.00 | 0.00 | 34 | 1015.8 |
| 20260508185744 | 22 | 278 | 3.2 | 9.7 | 0.00 | 0.00 | 0.00 | 34 | 1015.8 |
| 20260508185241 | 22 | 108 | 6.4 | 8.0 | 0.00 | 0.00 | 0.00 | 36 | 1015.9 |
| 20260508184738 | 21 | 101 | 3.2 | 3.2 | 0.00 | 0.00 | 0.00 | 36 | 1015.8 |
| 20260508184236 | 21 | 123 | 6.4 | 14.5 | 0.00 | 0.00 | 0.00 | 34 | 1016.0 |
| 20260508183732 | 21 | 264 | 3.2 | 11.3 | 0.00 | 0.00 | 0.00 | 34 | 1016.0 |
| 20260508183228 | 21 | 85 | 4.8 | 11.3 | 0.00 | 0.00 | 0.00 | 34 | 1016.0 |
| 20260508182724 | 21 | 205 | 0.0 | 4.8 | 0.00 | 0.00 | 0.00 | 33 | 1016.1 |
| 20260508182221 | 21 | 74 | 4.8 | 6.4 | 0.00 | 0.00 | 0.00 | 33 | 1016.0 |
| 20260508181717 | 21 | 65 | 6.4 | 6.4 | 0.00 | 0.00 | 0.00 | 32 | 1016.1 |
| 20260508181215 | 21 | 274 | 3.2 | 6.4 | 0.00 | 0.00 | 0.00 | 39 | 1016.3 |
| 20260508180711 | 21 | 75 | 4.8 | 12.9 | 0.00 | 0.00 | 0.00 | 35 | 1016.2 |
| 20260508180208 | 21 | 322 | 0.0 | 6.4 | 0.00 | 0.00 | 0.00 | 33 | 1016.3 |
| 20260508175705 | 21 | 69 | 3.2 | 4.8 | 0.00 | 0.00 | 0.00 | 31 | 1016.4 |
| 20260508175201 | 21 | 92 | 3.2 | 3.2 | 0.00 | 0.00 | 0.00 | 35 | 1016.3 |
| 20260508174659 | 20 | 29 | 3.2 | 6.4 | 0.00 | 0.00 | 0.00 | 34 | 1016.3 |
| 20260508174155 | 20 | 93 | 3.2 | 4.8 | 0.00 | 0.00 | 0.00 | 36 | 1016.3 |
| 20260508173652 | 20 | 70 | 6.4 | 8.0 | 0.00 | 0.00 | 0.00 | 33 | 1016.5 |
| 20260508173148 | 20 | 76 | 3.2 | 8.0 | 0.00 | 0.00 | 0.00 | 35 | 1016.6 |
| 20260508172646 | 20 | 108 | 6.4 | 6.4 | 0.00 | 0.00 | 0.00 | 34 | 1016.7 |
| 20260508172143 | 20 | 95 | 3.2 | 6.4 | 0.00 | 0.00 | 0.00 | 33 | 1016.7 |
| 20260508171639 | 20 | 301 | 3.2 | 3.2 | 0.00 | 0.00 | 0.00 | 35 | 1016.8 |
| 20260508171135 | 20 | 295 | 4.8 | 4.8 | 0.00 | 0.00 | 0.00 | 36 | 1017.0 |
| 20260508170632 | 20 | 273 | 1.6 | 4.8 | 0.00 | 0.00 | 0.00 | 41 | 1017.0 |
| 20260508170130 | 20 | 87 | 3.2 | 3.2 | 0.00 | 0.00 | 0.00 | 36 | 1017.3 |
| 20260508165627 | 20 | 71 | 4.8 | 6.4 | 0.00 | 0.00 | 0.00 | 36 | 1017.2 |
| 20260508165124 | 20 | 286 | 0.0 | 3.2 | 0.00 | 0.00 | 0.00 | 44 | 1017.5 |
| 20260508164620 | 20 | 103 | 9.7 | 9.7 | 0.00 | 0.00 | 0.00 | 36 | 1017.3 |
| 20260508164117 | 20 | 295 | 1.6 | 4.8 | 0.00 | 0.00 | 0.00 | 42 | 1017.4 |
| 20260508163615 | 20 | 161 | 0.0 | 9.7 | 0.00 | 0.00 | 0.00 | 33 | 1017.6 |
| 20260508163111 | 20 | 75 | 0.0 | 3.2 | 0.00 | 0.00 | 0.00 | 35 | 1017.9 |
| 20260508162608 | 20 | 76 | 4.8 | 6.4 | 0.00 | 0.00 | 0.00 | 42 | 1017.8 |
| 20260508162106 | 20 | 57 | 3.2 | 4.8 | 0.00 | 0.00 | 0.00 | 37 | 1018.0 |
| 20260508161602 | 20 | 202 | 0.0 | 4.8 | 0.00 | 0.00 | 0.00 | 36 | 1018.0 |
| 20260508161100 | 18 | 302 | 0.0 | 6.4 | 0.00 | 0.00 | 0.00 | 42 | 1018.1 |
| 20260508160558 | 18 | 42 | 1.6 | 6.4 | 0.00 | 0.00 | 0.00 | 38 | 1018.0 |
| 20260508160054 | 18 | 46 | 6.4 | 8.0 | 0.00 | 0.00 | 0.00 | 40 | 1018.1 |
| 20260508155552 | 18 | 77 | 1.6 | 4.8 | 0.00 | 0.00 | 0.00 | 40 | 1018.0 |
| 20260508155048 | 18 | 31 | 1.6 | 4.8 | 0.00 | 0.00 | 0.00 | 37 | 1018.2 |
| 20260508154546 | 18 | 311 | 1.6 | 3.2 | 0.00 | 0.00 | 0.00 | 42 | 1018.1 |
| 20260508154042 | 18 | 304 | 0.0 | 4.8 | 0.00 | 0.00 | 0.00 | 43 | 1018.1 |
| 20260508153539 | 18 | 97 | 3.2 | 4.8 | 0.00 | 0.00 | 0.00 | 40 | 1018.2 |
| 20260508153036 | 17 | 118 | 4.8 | 12.9 | 0.00 | 0.00 | 0.00 | 39 | 1018.3 |
| 20260508152533 | 17 | 0 | 0.0 | 3.2 | 0.00 | 0.00 | 0.00 | 44 | 1018.6 |
| 20260508152028 | 17 | 95 | 4.8 | 6.4 | 0.00 | 0.00 | 0.00 | 42 | 1018.6 |
| 20260508151525 | 17 | 60 | 3.2 | 6.4 | 0.00 | 0.00 | 0.00 | 41 | 1018.5 |
| 20260508151022 | 17 | 93 | 0.0 | 9.7 | 0.00 | 0.00 | 0.00 | 43 | 1018.6 |
| 20260508150519 | 17 | 94 | 1.6 | 6.4 | 0.00 | 0.00 | 0.00 | 43 | 1018.5 |
| 20260508150015 | 17 | 113 | 1.6 | 6.4 | 0.00 | 0.00 | 0.00 | 46 | 1018.6 |
| 20260508145512 | 17 | 311 | 0.0 | 3.2 | 0.00 | 0.00 | 0.00 | 44 | 1018.6 |
| 20260508145008 | 17 | 291 | 1.6 | 3.2 | 0.00 | 0.00 | 0.00 | 46 | 1018.5 |
| 20260508144506 | 17 | 291 | 0.0 | 3.2 | 0.00 | 0.00 | 0.00 | 50 | 1018.6 |
| 20260508144003 | 16 | 52 | 1.6 | 3.2 | 0.00 | 0.00 | 0.00 | 53 | 1018.8 |
| 20260508143500 | 16 | 61 | 0.0 | 3.2 | 0.00 | 0.00 | 0.00 | 57 | 1018.6 |
| 20260508142956 | 15 | 129 | 0.0 | 3.2 | 0.00 | 0.00 | 0.00 | 60 | 1018.5 |
| 20260508142454 | 15 | 89 | 1.6 | 6.4 | 0.00 | 0.00 | 0.00 | 60 | 1018.8 |
| 20260508141950 | 14 | 31 | 0.0 | 3.2 | 0.00 | 0.00 | 0.00 | 65 | 1018.6 |
| 20260508141447 | 14 | 96 | 6.4 | 6.4 | 0.00 | 0.00 | 0.00 | 66 | 1018.9 |
| 20260508140945 | 13 | 120 | 0.0 | 3.2 | 0.00 | 0.00 | 0.00 | 68 | 1019.0 |
| 20260508140441 | 13 | 85 | 3.2 | 3.2 | 0.00 | 0.00 | 0.00 | 73 | 1018.8 |
| 20260508135937 | 13 | 64 | 1.6 | 3.2 | 0.00 | 0.00 | 0.00 | 72 | 1018.8 |
| 20260508135434 | 13 | 58 | 1.6 | 3.2 | 0.00 | 0.00 | 0.00 | 76 | 1018.9 |
| 20260508134930 | 12 | 45 | 3.2 | 3.2 | 0.00 | 0.00 | 0.00 | 75 | 1019.1 |
| 20260508134427 | 12 | 69 | 0.0 | 3.2 | 0.00 | 0.00 | 0.00 | 79 | 1018.9 |
| 20260508133923 | 12 | 34 | 1.6 | 6.4 | 0.00 | 0.00 | 0.00 | 78 | 1018.8 |
| 20260508133421 | 12 | 72 | 3.2 | 4.8 | 0.00 | 0.00 | 0.00 | 79 | 1018.9 |
| 20260508132918 | 12 | 45 | 1.6 | 1.6 | 0.00 | 0.00 | 0.00 | 79 | 1018.8 |
| 20260508132416 | 11 | 86 | 3.2 | 4.8 | 0.00 | 0.00 | 0.00 | 80 | 1018.9 |
| 20260508131913 | 11 | 84 | 0.0 | 3.2 | 0.00 | 0.00 | 0.00 | 82 | 1018.8 |
| 20260508131408 | 11 | 57 | 3.2 | 3.2 | 0.00 | 0.00 | 0.00 | 82 | 1018.9 |
| 20260508130905 | 11 | 73 | 3.2 | 4.8 | 0.00 | 0.00 | 0.00 | 83 | 1018.8 |
| 20260508130402 | 10 | 52 | 0.0 | 4.8 | 0.00 | 0.00 | 0.00 | 85 | 1018.6 |
| 20260508125857 | 10 | 66 | 1.6 | 3.2 | 0.00 | 0.00 | 0.00 | 86 | 1018.6 |
| 20260508125354 | 10 | 75 | 3.2 | 4.8 | 0.00 | 0.00 | 0.00 | 88 | 1018.5 |
| 20260508124852 | 9 | 43 | 3.2 | 4.8 | 0.00 | 0.00 | 0.00 | 91 | 1018.3 |
| 20260508124349 | 8 | 74 | 3.2 | 3.2 | 0.00 | 0.00 | 0.00 | 93 | 1018.5 |
| 20260508123847 | 8 | 82 | 0.0 | 3.2 | 0.00 | 0.00 | 0.00 | 95 | 1018.6 |
| 20260508123345 | 8 | 68 | 3.2 | 3.2 | 0.00 | 0.00 | 0.00 | 96 | 1018.6 |
| 20260508122841 | 8 | 80 | 1.6 | 3.2 | 0.00 | 0.00 | 0.00 | 97 | 1018.9 |
| 20260508122338 | 7 | 86 | 3.2 | 3.2 | 0.00 | 0.00 | 0.00 | 97 | 1018.5 |
| 20260508121835 | 7 | 77 | 3.2 | 3.2 | 0.00 | 0.00 | 0.00 | 98 | 1018.8 |
| 20260508121334 | 7 | 77 | 3.2 | 3.2 | 0.00 | 0.00 | 0.00 | 97 | 1018.6 |
| 20260508120831 | 7 | 65 | 3.2 | 3.2 | 0.00 | 0.00 | 0.00 | 97 | 1018.6 |
| 20260508120329 | 7 | 74 | 3.2 | 3.2 | 0.00 | 0.00 | 0.00 | 97 | 1018.1 |
| 20260508115826 | 7 | 66 | 1.6 | 3.2 | 0.00 | 0.00 | 0.00 | 97 | 1018.2 |
| 20260508115323 | 6 | 73 | 3.2 | 3.2 | 0.00 | 0.00 | 0.00 | 97 | 1018.2 |
| 20260508114820 | 6 | 68 | 3.2 | 3.2 | 0.00 | 0.00 | 0.00 | 97 | 1018.1 |
| 20260508114317 | 6 | 65 | 3.2 | 4.8 | 0.00 | 0.00 | 0.00 | 97 | 1018.1 |
| 20260508113813 | 6 | 81 | 3.2 | 3.2 | 0.00 | 0.00 | 0.00 | 97 | 1017.9 |
| 20260508113312 | 6 | 74 | 3.2 | 3.2 | 0.00 | 0.00 | 0.00 | 97 | 1017.8 |
| 20260508112808 | 6 | 68 | 3.2 | 3.2 | 0.00 | 0.00 | 0.00 | 97 | 1017.8 |
| 20260508112307 | 6 | 79 | 3.2 | 3.2 | 0.00 | 0.00 | 0.00 | 97 | 1017.8 |
| 20260508111801 | 6 | 74 | 3.2 | 3.2 | 0.00 | 0.00 | 0.00 | 97 | 1017.7 |
| 20260508111259 | 5 | 89 | 3.2 | 3.2 | 0.00 | 0.00 | 0.00 | 97 | 1017.7 |
| 20260508110756 | 5 | 70 | 3.2 | 3.2 | 0.00 | 0.00 | 0.00 | 97 | 1017.5 |
| 20260508110253 | 5 | 64 | 3.2 | 3.2 | 0.00 | 0.00 | 0.00 | 96 | 1017.6 |
| 20260508105753 | 5 | 68 | 3.2 | 3.2 | 0.00 | 0.00 | 0.00 | 96 | 1017.3 |
| 20260508105250 | 5 | 59 | 3.2 | 3.2 | 0.00 | 0.00 | 0.00 | 96 | 1017.3 |
| 20260508104747 | 5 | 68 | 3.2 | 3.2 | 0.00 | 0.00 | 0.00 | 96 | 1017.3 |
| 20260508104244 | 5 | 83 | 3.2 | 3.2 | 0.00 | 0.00 | 0.00 | 96 | 1017.1 |
| 20260508103741 | 5 | 75 | 3.2 | 3.2 | 0.00 | 0.00 | 0.00 | 96 | 1017.2 |
| 20260508103238 | 5 | 77 | 1.6 | 3.2 | 0.00 | 0.00 | 0.00 | 96 | 1017.3 |
| 20260508102735 | 5 | 71 | 3.2 | 3.2 | 0.00 | 0.00 | 0.00 | 96 | 1017.0 |
| 20260508102233 | 5 | 69 | 3.2 | 3.2 | 0.00 | 0.00 | 0.00 | 96 | 1017.0 |
| 20260508101730 | 5 | 79 | 1.6 | 3.2 | 0.00 | 0.00 | 0.00 | 96 | 1016.9 |
| 20260508101228 | 5 | 84 | 3.2 | 3.2 | 0.00 | 0.00 | 0.00 | 96 | 1017.0 |
| 20260508100725 | 5 | 72 | 3.2 | 3.2 | 0.00 | 0.00 | 0.00 | 96 | 1016.8 |
| 20260508100223 | 5 | 81 | 3.2 | 3.2 | 0.00 | 0.00 | 0.00 | 96 | 1016.9 |
| 20260508095719 | 6 | 75 | 3.2 | 3.2 | 0.00 | 0.00 | 0.00 | 96 | 1017.0 |
| 20260508095217 | 6 | 71 | 3.2 | 3.2 | 0.00 | 0.00 | 0.00 | 96 | 1016.8 |
| 20260508094713 | 5 | 69 | 3.2 | 3.2 | 0.00 | 0.00 | 0.00 | 95 | 1016.8 |
| 20260508094210 | 6 | 70 | 3.2 | 3.2 | 0.00 | 0.00 | 0.00 | 95 | 1016.6 |
| 20260508093707 | 6 | 71 | 1.6 | 3.2 | 0.00 | 0.00 | 0.00 | 95 | 1016.8 |
| 20260508093205 | 6 | 63 | 3.2 | 3.2 | 0.00 | 0.00 | 0.00 | 96 | 1016.7 |
| 20260508092702 | 6 | 69 | 3.2 | 3.2 | 0.00 | 0.00 | 0.00 | 96 | 1016.8 |
| 20260508092200 | 6 | 61 | 3.2 | 3.2 | 0.00 | 0.00 | 0.00 | 95 | 1016.8 |
| 20260508091657 | 6 | 59 | 3.2 | 3.2 | 0.00 | 0.00 | 0.00 | 95 | 1016.4 |
| 20260508091154 | 6 | 75 | 3.2 | 3.2 | 0.00 | 0.00 | 0.00 | 95 | 1016.5 |
| 20260508090652 | 6 | 72 | 3.2 | 3.2 | 0.00 | 0.00 | 0.00 | 95 | 1016.8 |
| 20260508090150 | 6 | 68 | 3.2 | 3.2 | 0.00 | 0.00 | 0.00 | 95 | 1016.5 |
| 20260508085645 | 6 | 77 | 3.2 | 3.2 | 0.00 | 0.00 | 0.00 | 95 | 1016.6 |
| 20260508085143 | 6 | 78 | 3.2 | 3.2 | 0.00 | 0.00 | 0.00 | 95 | 1016.7 |
| 20260508084639 | 6 | 84 | 3.2 | 3.2 | 0.00 | 0.00 | 0.00 | 95 | 1016.7 |
| 20260508084136 | 6 | 77 | 3.2 | 3.2 | 0.00 | 0.00 | 0.00 | 95 | 1016.7 |
| 20260508083634 | 7 | 85 | 3.2 | 3.2 | 0.00 | 0.00 | 0.00 | 95 | 1016.8 |
| 20260508083131 | 7 | 80 | 3.2 | 3.2 | 0.00 | 0.00 | 0.00 | 94 | 1016.7 |
| 20260508082626 | 7 | 78 | 3.2 | 3.2 | 0.00 | 0.00 | 0.00 | 94 | 1016.4 |
| 20260508082124 | 7 | 84 | 3.2 | 3.2 | 0.00 | 0.00 | 0.00 | 94 | 1016.7 |
| 20260508081621 | 7 | 55 | 3.2 | 3.2 | 0.00 | 0.00 | 0.00 | 94 | 1016.7 |
| 20260508081117 | 7 | 73 | 3.2 | 3.2 | 0.00 | 0.00 | 0.00 | 93 | 1016.6 |
| 20260508080615 | 7 | 74 | 3.2 | 3.2 | 0.00 | 0.00 | 0.00 | 94 | 1016.6 |
| 20260508080113 | 7 | 76 | 3.2 | 3.2 | 0.00 | 0.00 | 0.00 | 93 | 1016.6 |
| 20260508075609 | 7 | 72 | 3.2 | 3.2 | 0.00 | 0.00 | 0.00 | 92 | 1016.6 |
| 20260508075106 | 7 | 73 | 3.2 | 3.2 | 0.00 | 0.00 | 0.00 | 92 | 1016.6 |
| 20260508074604 | 7 | 73 | 3.2 | 3.2 | 0.00 | 0.00 | 0.00 | 92 | 1016.6 |
| 20260508074101 | 7 | 74 | 3.2 | 3.2 | 0.00 | 0.00 | 0.00 | 92 | 1016.6 |
| 20260508073558 | 7 | 71 | 3.2 | 3.2 | 0.00 | 0.00 | 0.00 | 92 | 1016.7 |
| 20260508073056 | 7 | 65 | 1.6 | 3.2 | 0.00 | 0.00 | 0.00 | 92 | 1016.7 |
| 20260508072551 | 7 | 66 | 3.2 | 3.2 | 0.00 | 0.00 | 0.00 | 92 | 1016.7 |
| 20260508072048 | 7 | 79 | 3.2 | 3.2 | 0.00 | 0.00 | 0.00 | 92 | 1016.7 |
| 20260508071546 | 7 | 86 | 3.2 | 3.2 | 0.00 | 0.00 | 0.00 | 92 | 1016.8 |
| 20260508071044 | 7 | 89 | 3.2 | 3.2 | 0.00 | 0.00 | 0.00 | 91 | 1017.0 |
| 20260508070541 | 7 | 77 | 3.2 | 3.2 | 0.00 | 0.00 | 0.00 | 92 | 1016.6 |
| 20260508070039 | 8 | 77 | 3.2 | 3.2 | 0.00 | 0.00 | 0.00 | 92 | 1016.7 |
| 20260508065537 | 8 | 67 | 1.6 | 3.2 | 0.00 | 0.00 | 0.00 | 92 | 1016.8 |
| 20260508065035 | 8 | 74 | 1.6 | 3.2 | 0.00 | 0.00 | 0.00 | 92 | 1016.9 |
| 20260508064532 | 8 | 78 | 1.6 | 3.2 | 0.00 | 0.00 | 0.00 | 91 | 1016.7 |
| 20260508064030 | 8 | 46 | 1.6 | 3.2 | 0.00 | 0.00 | 0.00 | 91 | 1016.9 |
| 20260508063527 | 8 | 69 | 1.6 | 3.2 | 0.00 | 0.00 | 0.00 | 88 | 1016.8 |
| 20260508063025 | 8 | 66 | 1.6 | 3.2 | 0.00 | 0.00 | 0.00 | 86 | 1016.7 |
| 20260508062522 | 8 | 69 | 1.6 | 3.2 | 0.00 | 0.00 | 0.00 | 87 | 1017.0 |
| 20260508062018 | 8 | 87 | 3.2 | 3.2 | 0.00 | 0.00 | 0.00 | 88 | 1016.6 |
| 20260508061517 | 8 | 81 | 3.2 | 3.2 | 0.00 | 0.00 | 0.00 | 88 | 1016.9 |
| 20260508061013 | 8 | 62 | 3.2 | 3.2 | 0.00 | 0.00 | 0.00 | 88 | 1016.8 |
| 20260508060510 | 8 | 77 | 0.0 | 3.2 | 0.00 | 0.00 | 0.00 | 90 | 1016.9 |
| 20260508060008 | 8 | 64 | 1.6 | 3.2 | 0.00 | 0.00 | 0.00 | 91 | 1016.8 |
| 20260508055503 | 9 | 58 | 1.6 | 1.6 | 0.00 | 0.00 | 0.00 | 92 | 1017.0 |
| 20260508055000 | 9 | 58 | 1.6 | 3.2 | 0.00 | 0.00 | 0.00 | 92 | 1016.8 |
| 20260508054456 | 9 | 46 | 1.6 | 3.2 | 0.00 | 0.00 | 0.00 | 91 | 1016.8 |
| 20260508053953 | 8 | 73 | 1.6 | 1.6 | 0.00 | 0.00 | 0.00 | 91 | 1016.8 |
| 20260508053450 | 8 | 67 | 3.2 | 3.2 | 0.00 | 0.00 | 0.00 | 91 | 1016.8 |
| 20260508052948 | 8 | 82 | 1.6 | 3.2 | 0.00 | 0.00 | 0.00 | 91 | 1016.9 |
| 20260508052445 | 9 | 78 | 1.6 | 3.2 | 0.00 | 0.00 | 0.00 | 92 | 1016.8 |
| 20260508051942 | 9 | 81 | 1.6 | 3.2 | 0.00 | 0.00 | 0.00 | 93 | 1016.8 |
| 20260508051437 | 9 | 73 | 1.6 | 3.2 | 0.00 | 0.00 | 0.00 | 93 | 1017.1 |
| 20260508050933 | 9 | 60 | 0.0 | 3.2 | 0.00 | 0.00 | 0.00 | 93 | 1017.1 |
| 20260508050431 | 9 | 62 | 1.6 | 3.2 | 0.00 | 0.00 | 0.00 | 93 | 1017.2 |
| 20260508045926 | 9 | 71 | 1.6 | 3.2 | 0.00 | 0.00 | 0.00 | 92 | 1016.8 |
| 20260508045425 | 9 | 73 | 1.6 | 3.2 | 0.00 | 0.00 | 0.00 | 92 | 1016.7 |
| 20260508044922 | 9 | 64 | 3.2 | 3.2 | 0.00 | 0.00 | 0.00 | 92 | 1016.7 |
| 20260508044419 | 9 | 82 | 1.6 | 3.2 | 0.00 | 0.00 | 0.00 | 92 | 1016.7 |
| 20260508043914 | 9 | 92 | 1.6 | 3.2 | 0.00 | 0.00 | 0.00 | 92 | 1016.6 |
| 20260508043412 | 9 | 75 | 3.2 | 3.2 | 0.00 | 0.00 | 0.00 | 91 | 1016.7 |
| 20260508042908 | 10 | 87 | 1.6 | 3.2 | 0.00 | 0.00 | 0.00 | 91 | 1016.4 |
| 20260508042406 | 10 | 89 | 3.2 | 3.2 | 0.00 | 0.00 | 0.00 | 90 | 1016.5 |
| 20260508041903 | 10 | 74 | 1.6 | 3.2 | 0.00 | 0.00 | 0.00 | 90 | 1016.5 |
| 20260508041359 | 10 | 82 | 1.6 | 3.2 | 0.00 | 0.00 | 0.00 | 89 | 1016.5 |
| 20260508040855 | 10 | 74 | 3.2 | 3.2 | 0.00 | 0.00 | 0.00 | 89 | 1016.6 |
| 20260508040353 | 10 | 73 | 1.6 | 3.2 | 0.00 | 0.00 | 0.00 | 88 | 1016.5 |
| 20260508035850 | 10 | 89 | 1.6 | 3.2 | 0.00 | 0.23 | 0.23 | 87 | 1016.6 |
| 20260508035347 | 10 | 84 | 3.2 | 3.2 | 0.00 | 0.23 | 0.23 | 87 | 1016.3 |
| 20260508034844 | 10 | 72 | 3.2 | 3.2 | 0.00 | 0.23 | 0.23 | 86 | 1016.3 |
| 20260508034341 | 10 | 60 | 3.2 | 3.2 | 0.00 | 0.23 | 0.23 | 85 | 1016.4 |
| 20260508033838 | 11 | 58 | 3.2 | 3.2 | 0.00 | 0.23 | 0.23 | 85 | 1016.2 |
| 20260508033336 | 11 | 84 | 1.6 | 3.2 | 0.00 | 0.23 | 0.23 | 85 | 1016.2 |
| 20260508032833 | 11 | 80 | 3.2 | 3.2 | 0.00 | 0.23 | 0.23 | 84 | 1016.3 |
| 20260508032331 | 11 | 77 | 1.6 | 3.2 | 0.00 | 0.23 | 0.23 | 83 | 1016.2 |
| 20260508031827 | 11 | 80 | 1.6 | 3.2 | 0.00 | 0.23 | 0.23 | 80 | 1016.3 |
| 20260508031324 | 11 | 75 | 3.2 | 3.2 | 0.00 | 0.23 | 0.23 | 79 | 1016.5 |
| 20260508030820 | 11 | 73 | 3.2 | 3.2 | 0.00 | 0.23 | 0.23 | 82 | 1016.3 |
| 20260508030318 | 11 | 74 | 3.2 | 3.2 | 0.00 | 0.23 | 0.23 | 83 | 1016.3 |
| 20260508025814 | 11 | 69 | 1.6 | 3.2 | 0.00 | 0.23 | 0.23 | 84 | 1016.1 |
| 20260508025312 | 12 | 73 | 3.2 | 3.2 | 0.00 | 0.23 | 0.23 | 83 | 1016.0 |
| 20260508024808 | 12 | 75 | 3.2 | 3.2 | 0.00 | 0.23 | 0.23 | 81 | 1015.9 |
| 20260508024305 | 12 | 70 | 3.2 | 3.2 | 0.00 | 0.23 | 0.23 | 79 | 1016.1 |
| 20260508023802 | 12 | 89 | 1.6 | 3.2 | 0.00 | 0.23 | 0.23 | 80 | 1016.2 |
| 20260508023258 | 12 | 59 | 1.6 | 3.2 | 0.00 | 0.23 | 0.23 | 81 | 1016.1 |
| 20260508022754 | 13 | 60 | 1.6 | 3.2 | 0.00 | 0.23 | 0.23 | 79 | 1016.1 |
| 20260508022251 | 13 | 66 | 1.6 | 3.2 | 0.00 | 0.23 | 0.23 | 79 | 1016.1 |
| 20260508021748 | 13 | 70 | 1.6 | 3.2 | 0.00 | 0.23 | 0.23 | 78 | 1015.9 |
| 20260508021243 | 13 | 45 | 0.0 | 1.6 | 0.00 | 0.23 | 0.23 | 77 | 1016.0 |
| 20260508020740 | 13 | 59 | 1.6 | 3.2 | 0.00 | 0.23 | 0.23 | 78 | 1016.1 |
| 20260508020238 | 14 | 68 | 0.0 | 1.6 | 0.00 | 0.23 | 0.23 | 76 | 1015.9 |
| 20260508015735 | 14 | 84 | 0.0 | 1.6 | 0.00 | 0.23 | 0.23 | 79 | 1015.7 |
| 20260508015232 | 14 | 89 | 0.0 | 1.6 | 0.00 | 0.23 | 0.23 | 79 | 1015.4 |
| 20260508014729 | 14 | 81 | 1.6 | 1.6 | 0.00 | 0.23 | 0.23 | 79 | 1015.3 |
| 20260508014226 | 15 | 95 | 1.6 | 3.2 | 0.00 | 0.23 | 0.23 | 79 | 1015.3 |
| 20260508013721 | 15 | 99 | 0.0 | 3.2 | 0.00 | 0.23 | 0.23 | 79 | 1015.0 |
| 20260508013218 | 15 | 34 | 0.0 | 0.0 | 0.00 | 0.23 | 0.23 | 81 | 1015.3 |
| 20260508012716 | 15 | 83 | 1.6 | 3.2 | 0.00 | 0.23 | 0.23 | 81 | 1015.3 |
| 20260508012212 | 15 | 45 | 0.0 | 3.2 | 0.00 | 0.23 | 0.23 | 80 | 1015.1 |
| 20260508011711 | 15 | 59 | 1.6 | 3.2 | 0.00 | 0.23 | 0.23 | 82 | 1014.9 |
| 20260508011208 | 15 | 60 | 1.6 | 3.2 | 0.00 | 0.23 | 0.23 | 80 | 1014.9 |
| 20260508010704 | 15 | 289 | 0.0 | 3.2 | 0.00 | 0.23 | 0.23 | 80 | 1014.8 |
| 20260508010203 | 15 | 54 | 1.6 | 3.2 | 0.00 | 0.23 | 0.23 | 81 | 1014.6 |
| 20260508005659 | 15 | 47 | 0.0 | 1.6 | 0.00 | 0.23 | 0.23 | 81 | 1014.7 |
| 20260508005156 | 15 | 63 | 3.2 | 3.2 | 0.00 | 0.23 | 0.23 | 80 | 1014.7 |
| 20260508004652 | 15 | 32 | 0.0 | 1.6 | 0.00 | 0.23 | 0.23 | 80 | 1014.5 |
| 20260508004148 | 15 | 49 | 0.0 | 1.6 | 0.00 | 0.23 | 0.23 | 82 | 1014.5 |
| 20260508003645 | 15 | 32 | 1.6 | 1.6 | 0.00 | 0.23 | 0.23 | 80 | 1014.3 |
| 20260508003142 | 15 | 22 | 0.0 | 1.6 | 0.00 | 0.23 | 0.23 | 78 | 1014.2 |
| 20260508002638 | 15 | 32 | 0.0 | 0.0 | 0.00 | 0.23 | 0.23 | 78 | 1014.2 |
| 20260508002137 | 15 | 37 | 0.0 | 0.0 | 0.00 | 0.23 | 0.23 | 78 | 1014.2 |
| 20260508001637 | 15 | 50 | 0.0 | 0.0 | 0.00 | 0.23 | 0.23 | 78 | 1014.0 |
| 20260508001134 | 16 | 0 | 0.0 | 1.6 | 0.00 | 0.23 | 0.23 | 76 | 1014.0 |
| 20260508000629 | 16 | 32 | 0.0 | 0.0 | 0.00 | 0.23 | 0.23 | 74 | 1013.9 |
| 20260508000127 | 16 | 326 | 0.0 | 0.0 | 0.00 | 0.23 | 0.23 | 73 | 1013.9 |
| 20260507235624 | 16 | 6 | 0.0 | 0.0 | 0.00 | 0.23 | 0.23 | 72 | 1013.9 |
| 20260507235121 | 16 | 34 | 0.0 | 3.2 | 0.00 | 0.23 | 0.23 | 72 | 1013.9 |
| 20260507234618 | 16 | 6 | 0.0 | 0.0 | 0.00 | 0.23 | 0.23 | 71 | 1013.8 |
| 20260507234114 | 17 | 335 | 0.0 | 0.0 | 0.00 | 0.23 | 0.23 | 70 | 1013.8 |
| 20260507233611 | 17 | 44 | 0.0 | 1.6 | 0.00 | 0.23 | 0.23 | 68 | 1014.1 |
| 20260507233110 | 17 | 86 | 3.2 | 6.4 | 0.00 | 0.23 | 0.23 | 67 | 1013.7 |
| 20260507232605 | 17 | 80 | 0.0 | 1.6 | 0.00 | 0.23 | 0.23 | 67 | 1013.8 |
| 20260507232103 | 17 | 85 | 3.2 | 3.2 | 0.00 | 0.23 | 0.23 | 65 | 1013.9 |
| 20260507231559 | 17 | 110 | 1.6 | 4.8 | 0.00 | 0.23 | 0.23 | 66 | 1014.1 |
| 20260507231057 | 17 | 104 | 8.0 | 8.0 | 0.00 | 0.23 | 0.23 | 64 | 1014.0 |
| 20260507230553 | 18 | 94 | 3.2 | 6.4 | 0.00 | 0.23 | 0.23 | 64 | 1014.1 |
| 20260507230050 | 18 | 63 | 1.6 | 4.8 | 0.00 | 0.23 | 0.23 | 67 | 1014.0 |
| 20260507225544 | 19 | 157 | 1.6 | 3.2 | 0.00 | 0.23 | 0.23 | 64 | 1013.9 |
| 20260507225041 | 19 | 34 | 0.0 | 3.2 | 0.00 | 0.23 | 0.23 | 61 | 1014.0 |
| 20260507224537 | 19 | 76 | 3.2 | 6.4 | 0.00 | 0.23 | 0.23 | 60 | 1014.0 |
| 20260507224034 | 20 | 92 | 6.4 | 8.0 | 0.00 | 0.23 | 0.23 | 59 | 1014.2 |
| 20260507223530 | 18 | 37 | 3.2 | 4.8 | 0.00 | 0.23 | 0.23 | 65 | 1013.9 |
| 20260507223027 | 18 | 313 | 0.0 | 3.2 | 0.00 | 0.23 | 0.23 | 65 | 1014.1 |
| 20260507222524 | 19 | 67 | 4.8 | 6.4 | 0.00 | 0.23 | 0.23 | 59 | 1014.2 |
| 20260507222020 | 20 | 70 | 3.2 | 4.8 | 0.00 | 0.23 | 0.23 | 59 | 1014.1 |
| 20260507221517 | 18 | 89 | 3.2 | 4.8 | 0.00 | 0.23 | 0.23 | 58 | 1014.2 |
| 20260507221014 | 19 | 74 | 4.8 | 6.4 | 0.00 | 0.23 | 0.23 | 59 | 1014.3 |
| 20260507220511 | 19 | 89 | 4.8 | 9.7 | 0.00 | 0.23 | 0.23 | 59 | 1014.1 |
| 20260507220009 | 19 | 73 | 3.2 | 4.8 | 0.00 | 0.23 | 0.23 | 62 | 1013.9 |
| 20260507215504 | 18 | 5 | 0.0 | 3.2 | 0.00 | 0.23 | 0.23 | 66 | 1014.1 |
| 20260507215003 | 18 | 109 | 0.0 | 4.8 | 0.00 | 0.23 | 0.23 | 61 | 1014.1 |
| 20260507214459 | 17 | 62 | 1.6 | 3.2 | 0.00 | 0.23 | 0.23 | 62 | 1013.9 |